Temp
99 94 80 81 81 81 81 81 80 80 80 80 80 80 79 79 79 79 80 80 80 80 80 80 80 80 80 80 80 79 79 79 79 79 78 78 78 77 77 78 80 85 77
101 93 80 80 81 81 81 80 80 80 79 80 80 79 79 79 79 79 80 80 80 81 80 80 80 80 80 80 79 79 79 79 79 79 78 78 78 78 77 78 79 81 77
99 94 88 80 80 81 80 80 79 79 79 79 79 79 79 79 79 79 79 80 81 81 81 81 80 80 80 79 79 78 78 78 78 78 80 91 86 78 77 77 77 77 76
98 94 93 80 80 80 80 79 79 79 79 79 79 79 79 79 79 80 80 80 81 81 81 80 80 80 79 79 79 79 78 78 78 78 91 92 89 77 77 77 77 76 76
98 97 91 80 80 80 80 79 79 79 79 79 79 80 79 79 79 79 80 80 81 81 81 80 80 80 79 79 79 78 78 78 78 82 93 92 90 79 77 76 76 76 76
101 100 83 79 79 80 80 79 79 79 79 79 80 80 79 79 79 79 80 80 81 81 81 80 80 79 79 79 78 79 79 78 78 93 90 85 89 77 76 76 76 76 75
102 101 91 79 79 80 80 80 79 79 79 79 80 80 79 79 79 79 80 80 80 80 80 80 79 79 79 79 79 78 78 79 91 93 90 89 87 76 77 76 76 75 75
100 99 93 81 79 79 79 79 79 79 79 79 79 79 79 79 79 79 79 80 80 80 80 79 79 79 78 78 78 79 78 78 89 92 92 92 76 77 77 76 76 75 75
101 99 95 92 85 79 79 79 78 78 79 79 79 79 79 79 79 79 79 79 79 79 79 79 79 79 78 78 78 78 78 79 91 96 93 93 75 77 77 76 76 75 75
101 100 97 95 94 91 90 79 79 78 78 78 78 78 78 79 79 79 78 79 79 79 79 79 79 79 79 78 78 78 79 79 91 96 94 93 77 77 77 76 76 76 75
99 100 100 99 98 96 96 88 79 79 79 78 80 78 79 91 88 86 85 80 80 80 80 80 79 79 79 78 78 78 78 91 92 96 92 77 77 77 78 77 76 76 75
97 99 100 98 98 98 97 93 91 91 91 90 90 87 92 93 93 93 87 79 79 79 80 79 79 79 79 95 92 81 91 95 96 95 97 78 77 78 78 77 77 76 76
99 98 99 95 94 97 97 95 95 95 94 92 90 90 91 93 92 92 93 91 89 81 92 86 88 91 93 95 97 97 94 94 96 96 90 77 77 77 78 78 77 76 76
98 97 97 96 91 92 97 95 95 95 95 93 92 88 90 90 90 92 95 95 92 95 93 92 96 94 92 92 93 93 94 95 97 96 90 78 76 77 78 79 78 77 76
95 96 96 95 90 90 89 94 93 93 93 94 93 91 92 91 90 92 92 94 94 95 95 94 94 93 93 93 93 93 93 93 94 94 95 78 76 76 78 79 79 77 77
91 94 95 93 90 91 88 88 90 91 93 93 93 93 89 91 89 92 91 92 93 94 95 95 94 92 92 93 92 91 91 93 94 93 95 92 76 76 77 78 79 78 78
92 92 92 91 91 88 88 88 89 92 93 93 92 90 88 88 88 86 91 91 93 93 92 92 90 91 90 92 90 92 93 93 95 93 93 95 89 74 76 77 78 79 78
90 89 89 94 93 88 88 89 90 92 92 92 92 91 89 88 87 87 90 91 93 91 92 91 91 91 91 92 91 92 94 93 93 92 94 94 94 94 78 76 77 78 78
86 87 87 89 91 90 87 89 89 88 89 91 91 90 89 88 89 86 90 91 88 90 90 90 90 90 89 90 92 92 92 92 92 94 92 92 92 91 93 77 76 76 77
85 84 85 87 87 86 88 87 90 90 90 91 91 91 89 90 88 87 88 88 88 89 90 90 86 90 89 90 92 92 92 92 92 92 92 93 93 91 91 89 86 85 76
81 81 83 84 84 86 87 88 89 88 90 90 90 89 88 89 88 86 88 88 86 86 86 86 85 84 86 89 86 88 89 90 87 91 92 92 92 92 91 90 86 90 85
74 76 77 77 82 85 88 88 91 90 90 85 82 80 79 77 78 84 84 85 85 86 83 83 82 81 86 88 81 87 82 88 90 89 91 90 90 92 91 88 89 88 88
70 72 73 75 76 79 83 84 84 82 78 81 80 81 78 78 78 78 74 71 72 74 76 81 82 80 79 83 84 83 80 81 87 90 86 90 87 90 91 90 88 88 86
77 77 75 77 76 77 80 80 80 81 76 78 74 73 72 73 72 74 77 75 69 67 67 74 78 76 77 77 83 85 83 83 80 81 86 86 86 85 85 90 89 87 87
78 77 76 75 76 74 74 75 78 75 75 74 73 70 69 69 70 72 72 71 69 69 69 70 73 73 78 77 80 83 83 84 83 80 80 81 86 87 87 86 87 88 86
81 79 77 75 74 75 75 74 73 70 69 70 69 68 67 66 66 68 69 67 68 70 70 74 74 74 74 75 79 81 83 82 83 82 80 81 83 83 86 84 80 87 88
MSLP
1011.51 1012.98 1014.43 1014.89 1015.13 1015.32 1015.50 1015.75 1015.94 1016.15 1016.39 1016.61 1016.76 1016.99 1017.23 1017.37 1017.49 1017.60 1017.69 1017.78 1017.84 1017.88 1017.97 1018.08 1018.17 1018.28 1018.36 1018.42 1018.49 1018.43 1018.36 1018.42 1018.41 1018.43 1018.46 1018.53 1018.60 1018.66 1018.67 1018.48 1018.05 1017.99 1018.65
1011.46 1013.11 1014.33 1014.68 1015.09 1015.40 1015.73 1015.98 1016.18 1016.42 1016.64 1016.78 1016.96 1017.18 1017.43 1017.58 1017.69 1017.81 1017.87 1017.99 1018.05 1018.09 1018.19 1018.25 1018.34 1018.50 1018.55 1018.63 1018.71 1018.79 1018.78 1018.78 1018.74 1018.64 1018.50 1018.61 1018.81 1018.90 1018.94 1018.90 1018.62 1018.77 1018.89
1011.61 1012.97 1014.10 1014.71 1014.96 1015.23 1015.62 1015.90 1016.18 1016.42 1016.68 1016.91 1017.10 1017.39 1017.65 1017.81 1017.92 1018.06 1018.13 1018.20 1018.25 1018.30 1018.36 1018.53 1018.55 1018.58 1018.73 1018.81 1018.89 1019.01 1018.99 1018.98 1018.98 1018.70 1018.17 1017.55 1018.38 1019.07 1019.16 1019.24 1019.33 1019.30 1019.25
1011.69 1012.93 1013.77 1015.01 1015.32 1015.70 1015.92 1016.29 1016.64 1016.93 1017.06 1017.18 1017.39 1017.58 1017.86 1018.05 1018.23 1018.37 1018.48 1018.50 1018.50 1018.57 1018.70 1018.77 1018.80 1018.82 1018.90 1018.90 1018.95 1019.05 1019.11 1019.16 1019.06 1018.57 1017.41 1017.43 1018.17 1019.24 1019.31 1019.31 1019.48 1019.53 1019.51
1012.11 1013.01 1014.00 1015.20 1015.55 1015.79 1016.12 1016.52 1016.89 1017.19 1017.44 1017.56 1017.69 1017.81 1018.06 1018.31 1018.49 1018.62 1018.80 1018.83 1018.81 1018.84 1018.97 1019.10 1019.11 1019.06 1019.13 1019.11 1019.12 1019.14 1019.15 1019.14 1018.92 1018.25 1017.44 1017.57 1017.79 1019.23 1019.41 1019.49 1019.61 1019.68 1019.63
1011.92 1012.86 1014.77 1015.43 1015.79 1016.14 1016.40 1016.63 1017.03 1017.33 1017.61 1017.79 1017.98 1018.08 1018.26 1018.39 1018.66 1018.85 1018.90 1019.05 1019.03 1019.06 1019.12 1019.28 1019.35 1019.36 1019.41 1019.37 1019.31 1019.18 1019.09 1019.08 1018.75 1017.64 1017.97 1018.47 1018.20 1019.38 1019.53 1019.65 1019.75 1019.77 1019.87
1011.80 1012.63 1014.48 1015.56 1016.06 1016.51 1016.79 1017.15 1017.39 1017.43 1017.62 1017.86 1018.12 1018.21 1018.45 1018.64 1018.78 1018.89 1019.01 1019.05 1019.08 1019.19 1019.32 1019.38 1019.45 1019.48 1019.46 1019.49 1019.44 1019.37 1019.21 1019.06 1017.90 1017.52 1018.06 1018.16 1018.57 1019.52 1019.65 1019.70 1019.73 1019.81 1019.95
1012.04 1012.75 1014.22 1015.70 1016.13 1016.38 1016.75 1017.10 1017.50 1017.79 1017.85 1017.98 1018.17 1018.34 1018.47 1018.66 1018.84 1018.98 1019.09 1019.08 1019.13 1019.23 1019.38 1019.49 1019.53 1019.56 1019.56 1019.59 1019.60 1019.47 1019.39 1019.19 1018.09 1017.85 1017.92 1017.94 1019.25 1019.55 1019.50 1019.55 1019.85 1019.89 1019.92
1012.23 1012.87 1014.13 1015.13 1016.13 1016.76 1016.97 1017.16 1017.38 1017.58 1017.81 1018.00 1018.27 1018.56 1018.72 1018.80 1018.97 1019.09 1019.09 1019.11 1019.20 1019.28 1019.37 1019.46 1019.55 1019.61 1019.64 1019.60 1019.58 1019.49 1019.44 1019.20 1018.05 1017.58 1017.83 1017.75 1019.00 1019.38 1019.55 1019.69 1019.68 1019.83 1019.92
1012.22 1012.73 1013.69 1014.53 1015.29 1015.94 1016.58 1017.39 1017.60 1017.75 1018.01 1018.26 1018.46 1018.54 1018.67 1018.88 1018.94 1019.11 1019.12 1019.07 1019.14 1019.21 1019.32 1019.40 1019.46 1019.45 1019.47 1019.50 1019.45 1019.36 1019.27 1018.99 1017.78 1017.06 1017.29 1017.54 1018.77 1019.18 1019.30 1019.46 1019.59 1019.66 1019.87
1011.90 1012.52 1013.09 1013.73 1014.33 1014.89 1015.34 1016.67 1017.57 1017.87 1018.00 1018.32 1018.49 1018.69 1018.76 1018.02 1018.39 1018.70 1018.53 1018.80 1019.03 1019.29 1019.38 1019.34 1019.35 1019.28 1019.31 1019.11 1019.00 1019.06 1019.05 1017.32 1016.66 1016.56 1016.63 1017.67 1018.45 1018.81 1019.03 1019.21 1019.40 1019.57 1019.77
1011.49 1012.15 1012.82 1013.41 1013.82 1014.45 1014.89 1015.94 1016.74 1017.00 1017.25 1017.46 1017.56 1018.02 1017.81 1017.46 1017.50 1017.59 1018.00 1018.90 1019.12 1019.20 1019.24 1019.14 1019.08 1019.06 1018.83 1017.11 1017.39 1018.44 1017.65 1016.44 1016.27 1016.35 1016.10 1017.58 1018.19 1018.57 1018.78 1019.00 1019.25 1019.37 1019.61
1011.03 1011.94 1012.73 1013.69 1014.27 1014.42 1014.83 1015.47 1015.91 1016.12 1016.54 1016.97 1017.28 1017.58 1017.62 1017.41 1017.67 1017.89 1017.58 1018.04 1018.28 1018.70 1017.95 1018.36 1018.14 1017.87 1016.90 1016.99 1016.53 1016.70 1016.80 1016.74 1015.93 1016.28 1016.41 1017.48 1017.91 1018.27 1018.42 1018.66 1018.88 1019.05 1019.33
1010.78 1011.72 1012.61 1013.26 1014.24 1014.61 1014.47 1015.10 1015.27 1015.58 1016.00 1016.37 1016.71 1017.30 1017.31 1017.56 1017.43 1017.31 1017.02 1017.01 1017.45 1017.09 1017.02 1017.25 1016.70 1017.03 1017.17 1017.22 1017.02 1016.79 1016.45 1016.15 1015.56 1016.09 1016.01 1017.03 1017.51 1017.69 1017.95 1018.01 1018.43 1018.73 1019.00
1011.21 1011.94 1012.70 1013.45 1014.38 1014.85 1015.23 1015.08 1015.59 1015.88 1016.15 1016.25 1016.70 1017.20 1017.22 1017.23 1017.19 1017.15 1016.97 1016.88 1016.78 1016.60 1016.60 1016.42 1016.49 1016.70 1016.62 1016.63 1016.53 1016.43 1016.21 1015.99 1015.90 1015.92 1015.61 1016.59 1017.05 1017.26 1017.42 1017.60 1017.84 1018.37 1018.61
1011.87 1012.05 1012.66 1013.35 1014.17 1014.84 1015.40 1015.62 1015.64 1016.00 1015.86 1016.35 1016.37 1016.71 1017.37 1017.22 1017.22 1017.10 1017.20 1017.04 1016.78 1016.58 1016.25 1016.11 1016.04 1016.30 1016.35 1016.13 1016.11 1016.06 1016.00 1015.63 1015.41 1015.49 1015.34 1015.61 1016.41 1016.83 1017.05 1017.38 1017.37 1017.82 1018.15
1011.83 1012.27 1012.66 1013.33 1013.86 1014.70 1014.96 1015.35 1015.60 1015.60 1015.75 1015.93 1016.20 1016.78 1017.23 1017.38 1017.25 1017.40 1016.94 1016.81 1016.62 1016.48 1016.48 1016.28 1016.30 1016.20 1016.33 1015.88 1015.80 1015.68 1015.42 1015.34 1014.92 1015.16 1015.28 1014.81 1015.09 1016.25 1016.69 1017.05 1017.12 1017.32 1017.76
1011.99 1012.43 1012.95 1013.04 1013.41 1014.28 1014.61 1014.82 1015.02 1015.00 1015.46 1015.63 1015.91 1016.15 1016.59 1016.85 1017.05 1017.09 1016.74 1016.42 1016.10 1016.21 1016.04 1015.92 1015.82 1015.64 1015.56 1015.37 1015.21 1015.11 1014.82 1014.72 1014.66 1014.85 1014.70 1014.67 1014.73 1014.68 1015.89 1016.45 1016.83 1016.89 1017.35
1012.55 1012.75 1013.03 1013.19 1013.22 1013.48 1014.07 1014.28 1014.62 1014.90 1015.25 1015.30 1015.47 1015.69 1015.94 1016.36 1016.56 1016.84 1016.36 1016.06 1016.43 1016.12 1015.82 1015.64 1015.56 1015.35 1015.29 1015.16 1014.81 1014.64 1014.68 1014.53 1014.39 1014.33 1014.36 1014.47 1014.70 1014.91 1014.45 1015.35 1016.13 1016.57 1016.90
1012.90 1013.13 1013.24 1013.30 1013.44 1013.75 1013.75 1014.10 1013.98 1014.29 1014.60 1014.77 1014.93 1015.11 1015.48 1015.67 1015.94 1016.24 1016.01 1015.89 1015.98 1015.73 1015.47 1015.40 1015.44 1015.09 1015.12 1014.83 1014.44 1014.00 1014.16 1014.19 1014.19 1014.03 1014.09 1014.25 1014.17 1014.40 1014.61 1014.67 1015.36 1015.67 1016.46
1013.49 1013.39 1013.31 1013.39 1013.70 1013.67 1013.57 1013.32 1013.32 1013.50 1013.78 1014.18 1014.33 1014.84 1015.19 1015.30 1015.64 1015.93 1015.77 1015.81 1015.96 1015.54 1015.17 1015.19 1015.46 1015.28 1015.11 1014.79 1014.71 1014.24 1013.76 1013.84 1014.25 1013.97 1013.79 1013.82 1013.78 1013.99 1014.04 1014.16 1014.78 1014.43 1015.09
1014.63 1014.40 1014.30 1014.09 1013.64 1013.62 1013.37 1013.31 1013.14 1013.24 1013.66 1014.13 1014.78 1015.53 1015.79 1016.03 1016.08 1015.75 1015.81 1015.84 1015.66 1015.31 1015.33 1014.98 1015.29 1015.33 1014.63 1014.47 1014.43 1013.56 1013.26 1012.57 1012.80 1013.57 1013.63 1013.59 1013.60 1013.74 1013.57 1014.05 1014.06 1014.33 1014.69
1015.29 1015.12 1015.01 1014.83 1014.57 1014.17 1013.81 1013.88 1013.89 1014.35 1014.91 1014.96 1015.10 1015.42 1015.82 1015.95 1016.02 1015.97 1016.78 1016.95 1016.76 1017.22 1016.06 1015.90 1015.14 1014.98 1014.72 1014.31 1014.17 1014.21 1013.18 1012.34 1012.22 1012.64 1013.45 1013.31 1013.74 1013.41 1013.37 1013.56 1013.99 1014.22 1014.68
1015.25 1015.29 1015.45 1015.29 1015.25 1015.14 1014.78 1014.55 1014.37 1014.30 1015.15 1015.58 1016.23 1015.98 1015.90 1015.64 1015.82 1015.96 1016.29 1016.41 1016.09 1017.25 1014.88 1016.35 1016.10 1015.66 1015.40 1014.55 1014.34 1014.25 1014.23 1013.80 1013.16 1012.31 1012.78 1013.11 1013.42 1013.63 1013.63 1013.25 1013.40 1014.02 1014.34
1015.65 1015.67 1015.92 1016.02 1015.91 1015.89 1015.85 1015.79 1015.52 1015.73 1015.92 1016.47 1016.83 1016.37 1016.64 1016.35 1014.64 1014.94 1016.44 1016.43 1016.12 1016.53 1017.81 1017.82 1016.32 1016.41 1015.73 1015.18 1014.53 1013.99 1013.70 1013.67 1013.57 1013.20 1012.20 1012.13 1012.66 1013.03 1013.57 1013.66 1013.77 1013.58 1014.30
1015.71 1015.90 1016.21 1016.47 1016.57 1016.63 1016.58 1016.64 1016.59 1016.64 1016.91 1017.08 1017.23 1017.07 1017.20 1017.28 1016.35 1015.71 1016.31 1016.31 1016.80 1016.96 1017.05 1016.52 1016.76 1016.11 1015.63 1015.15 1014.61 1014.06 1013.58 1012.93 1012.45 1012.50 1012.29 1012.24 1011.92 1012.37 1013.31 1013.94 1014.25 1013.56 1013.69
Wind_Speed
13 17 14 14 13 14 15 16 16 16 16 16 17 16 16 15 15 15 16 16 15 16 17 17 16 16 14 13 12 11 13 13 11 11 12 11 11 11 9 5 6 13 11
18 19 16 15 15 15 15 15 15 15 15 15 16 17 16 15 15 15 15 14 14 16 16 16 15 14 14 13 13 11 10 9 10 9 11 13 11 9 10 9 13 12 11
19 19 18 15 16 16 15 15 15 15 15 15 16 16 15 14 15 15 13 13 14 15 14 14 13 12 11 11 11 10 9 9 8 3 6 9 12 9 9 9 9 9 9
19 18 18 15 15 14 14 14 13 13 14 14 15 16 15 14 14 14 12 12 14 13 12 12 11 10 8 7 4 5 6 7 4 7 2 8 11 9 8 8 9 7 7
17 17 16 15 14 15 15 14 13 13 13 14 15 15 15 14 13 12 11 11 12 12 11 10 9 9 7 5 3 2 3 5 5 9 7 8 8 9 7 6 9 6 9
17 17 19 15 15 14 15 15 14 14 13 14 14 14 14 15 13 11 11 9 10 10 10 8 7 7 5 4 3 4 3 8 11 8 6 6 9 9 6 5 7 7 6
16 15 19 15 14 13 14 13 13 13 13 13 13 14 14 13 12 11 10 10 10 9 8 7 6 5 5 3 3 5 5 7 11 7 6 2 10 7 5 5 5 5 5
14 14 17 14 13 14 14 14 12 11 12 12 12 12 13 13 12 11 10 9 9 8 7 6 5 4 3 2 2 4 5 7 8 4 2 4 10 6 6 6 5 5 5
14 13 14 15 13 11 11 13 13 13 13 12 11 10 10 11 10 9 9 8 8 7 6 6 5 4 3 2 2 2 6 7 12 1 3 3 14 8 6 6 7 6 5
14 13 14 14 15 14 13 12 12 11 11 10 10 11 10 9 9 9 7 9 8 7 7 6 5 5 4 5 5 6 6 10 13 3 4 4 11 10 9 9 8 7 7
13 13 13 14 15 14 14 13 12 12 11 10 10 9 9 9 10 12 7 10 6 6 6 5 6 6 5 11 11 9 9 10 4 2 4 16 11 12 12 11 10 9 8
15 15 13 13 13 12 9 12 11 11 10 10 10 11 9 7 7 5 6 6 6 6 7 8 7 7 10 9 10 12 9 6 4 4 3 12 12 13 13 12 11 11 10
16 13 14 12 10 11 9 7 7 6 7 7 9 8 9 6 6 7 6 7 8 12 9 11 10 9 4 5 3 2 6 7 4 4 5 10 11 13 14 14 14 13 12
14 14 15 15 12 11 8 8 7 7 7 7 9 11 7 6 6 6 5 5 5 5 5 5 5 3 5 6 7 7 7 6 4 3 2 11 11 15 16 17 15 14 13
9 11 12 12 11 10 9 6 6 6 6 6 6 9 7 7 6 6 5 6 5 5 6 5 5 5 5 7 7 7 8 8 9 5 6 11 12 15 17 18 17 16 15
7 8 10 11 10 10 8 7 5 6 6 7 6 6 9 7 5 6 6 6 6 6 6 6 5 5 6 7 8 9 10 9 8 7 7 6 14 14 16 17 17 17 16
7 7 8 10 10 9 9 8 8 6 7 6 6 6 7 8 7 8 7 6 7 7 8 7 7 7 8 8 10 9 10 11 9 8 8 8 9 14 14 16 16 17 17
5 6 7 8 11 11 9 7 7 7 6 6 6 6 8 10 10 8 8 8 8 7 8 8 7 7 8 8 8 8 8 9 9 8 9 5 7 5 14 16 17 16 17
2 6 7 8 10 11 10 8 8 7 6 6 6 6 9 9 10 9 9 9 8 8 9 8 8 8 8 8 9 8 8 8 8 8 8 7 7 6 6 18 17 14 13
3 4 5 6 6 7 7 7 6 6 7 6 6 7 7 7 9 8 9 10 9 9 9 9 9 8 8 8 9 8 7 8 8 8 7 8 8 7 8 7 8 10 14
5 4 4 6 6 7 6 7 7 7 7 6 6 5 4 5 7 8 8 9 9 10 10 9 10 10 9 8 7 8 9 10 10 9 7 6 7 6 7 6 6 7 11
6 6 6 4 4 6 5 5 3 4 4 7 9 10 9 10 11 9 8 10 11 11 12 11 10 9 9 8 7 7 8 5 8 7 7 5 6 7 6 8 9 7 5
9 9 9 8 6 4 3 4 5 7 7 7 9 7 7 7 7 6 7 8 12 13 12 8 8 8 8 9 4 8 7 8 3 6 7 5 3 4 4 4 5 6 6
9 7 6 7 5 6 5 4 2 4 6 6 4 5 5 6 7 9 9 7 6 2 13 14 8 5 7 5 5 5 9 11 9 9 6 6 5 5 5 5 5 5 6
10 11 11 11 11 8 7 6 5 6 5 4 3 7 5 3 9 10 9 9 10 3 5 9 10 10 8 7 8 9 9 8 10 9 9 3 6 4 3 5 4 5 6
10 10 10 11 11 10 9 9 8 7 5 4 3 3 4 5 7 9 7 6 7 6 9 11 12 13 10 9 9 10 10 8 7 8 8 9 8 5 3 4 5 5 6
Wind_Direction
151 135 150 151 146 141 139 137 135 133 129 125 118 115 111 108 107 106 105 105 105 102 100 99 97 95 93 88 80 79 76 75 75 79 80 78 78 77 76 65 163 91 82
142 146 154 155 152 146 142 138 135 133 132 126 121 119 117 115 113 114 113 112 110 106 104 103 103 100 97 91 84 76 73 69 77 96 112 102 86 86 76 58 46 80 81
146 150 162 159 157 151 146 143 142 140 136 131 127 125 122 119 118 120 118 117 114 110 108 107 107 104 103 100 98 87 83 86 96 132 241 78 89 85 87 81 81 77 81
147 152 157 159 155 151 145 143 140 137 135 133 131 128 125 122 121 122 122 120 118 115 113 114 113 111 110 111 116 71 97 98 128 233 146 89 92 95 99 92 93 90 99
153 156 144 160 156 154 151 146 142 139 137 137 134 130 129 125 124 125 126 127 125 122 120 120 119 115 115 112 105 110 156 147 206 246 78 73 90 107 111 120 131 109 45
157 156 135 159 157 157 157 150 143 140 142 141 140 137 136 133 130 131 130 134 130 130 129 129 125 118 112 101 95 93 129 173 226 99 94 96 63 114 119 104 94 96 93
158 157 153 158 156 158 157 151 146 144 145 143 146 143 142 139 139 136 139 142 141 141 143 146 140 134 125 101 83 126 141 201 272 83 101 39 96 139 137 127 130 124 114
158 156 149 154 158 158 158 153 151 150 149 150 153 152 148 149 148 151 155 152 151 157 161 159 161 156 144 123 93 157 179 231 223 66 85 134 116 157 167 166 156 146 136
162 168 155 165 161 160 158 158 158 158 157 157 158 155 155 154 157 164 167 168 171 176 181 179 187 187 188 191 204 192 201 250 287 94 267 255 144 184 185 183 181 171 162
170 174 166 172 171 174 166 169 168 162 158 160 161 163 163 165 172 184 187 190 194 198 203 207 208 214 231 232 227 228 220 239 254 241 216 112 152 190 197 196 198 188 183
179 179 180 180 175 186 170 168 172 170 166 167 172 177 171 197 180 167 176 150 202 222 226 233 244 236 239 239 222 219 236 248 247 253 267 126 171 202 205 202 202 201 194
183 185 187 191 182 192 177 161 192 177 189 192 189 180 214 209 192 231 151 172 227 237 239 240 246 242 234 243 187 202 233 255 271 293 289 143 186 209 214 208 207 206 205
186 190 195 188 189 202 193 180 190 186 191 192 199 197 219 198 197 212 202 197 218 203 226 196 201 225 282 311 284 312 321 286 258 301 108 156 197 215 218 212 214 211 209
189 191 193 186 189 209 197 193 197 205 195 201 197 194 208 217 207 229 223 210 214 207 214 216 231 243 259 261 274 294 278 274 279 257 174 171 204 213 217 215 213 213 211
198 194 207 196 191 201 213 197 224 222 207 216 207 198 221 224 216 222 230 241 232 214 220 220 231 247 249 241 249 254 264 279 287 265 288 168 208 215 215 217 212 215 213
210 210 204 196 191 205 215 230 221 224 232 230 220 221 219 237 220 243 235 237 237 238 242 249 241 266 266 273 255 253 257 262 260 271 270 228 201 213 218 221 216 213 214
209 223 193 197 194 206 209 215 222 238 226 230 228 210 233 229 224 256 244 244 243 244 258 250 252 240 255 251 251 257 254 251 259 252 250 267 174 201 218 222 223 213 214
236 182 201 201 188 198 214 216 226 220 224 226 228 226 215 231 234 229 246 242 240 239 243 250 249 253 253 258 262 266 263 250 260 252 256 255 256 271 192 213 225 225 217
197 187 197 199 210 197 193 215 217 224 216 228 218 222 213 230 244 240 252 253 248 248 249 246 248 249 261 261 261 249 262 263 256 251 272 274 262 275 272 174 203 223 225
132 128 167 199 191 199 195 196 206 206 210 215 220 230 225 225 231 241 249 252 247 248 247 245 254 257 260 278 284 294 280 274 261 260 258 257 260 257 251 261 191 211 216
72 124 166 181 178 199 195 198 193 200 188 194 209 213 247 242 249 250 256 261 249 255 253 261 255 248 262 252 265 262 245 240 254 266 251 261 271 249 252 229 236 232 185
74 75 79 92 175 214 211 231 226 169 135 74 66 71 60 41 13 317 281 283 279 267 245 243 251 270 254 253 266 277 280 266 212 224 250 245 267 290 249 219 220 220 229
61 64 66 63 60 37 96 156 164 92 111 142 132 116 75 52 27 26 360 6 335 321 290 250 249 253 266 285 207 269 287 287 339 174 208 260 305 267 252 204 226 213 220
68 86 61 51 68 67 41 68 106 143 150 119 104 100 93 92 55 24 354 332 278 357 305 322 313 285 270 273 307 245 276 298 285 282 181 196 222 255 223 236 181 205 196
79 78 77 71 68 78 82 80 104 92 103 98 109 102 110 92 104 75 19 355 339 2 267 272 299 281 280 264 255 268 258 254 238 265 276 196 189 184 236 225 212 209 196
97 89 84 78 74 73 74 81 90 101 99 80 40 9 22 9 9 48 53 53 10 300 289 283 277 282 277 280 280 271 265 262 247 238 248 261 263 150 189 195 220 224 191